"2009-09-22 00:00:00",1261728,12.34,42.18,4.411,1.185,11.16,102.7085,6.213,7.357,46.38,0,110,13.43,6.99,4.2
"2009-09-22 00:00:30",1261729,14.26,38.86,4.84,0.92,11.44,102.7119,6.221,7.375,46.36,0,110,13.43,7.00,0.9
"2009-09-22 00:01:00",1261730,11.96,37.24,4.112,1.613,11,102.7119,6.221,7.393,45.74,0,110,13.43,7.00,359.2
"2009-09-22 00:01:30",1261731,11.5,36.14,4.175,1.008,10.88,102.7119,6.221,7.416,45.8,0,110,13.43,7.00,358.1
"2009-09-22 00:02:00",1261732,12.85,38.4,4.05,1.367,10.98,102.7119,6.221,7.426,45.37,0,110,13.43,7.00,0.4
"2009-09-22 00:02:30",1261733,12.33,38.83,4.708,1.529,10.95,102.7119,6.221,7.447,45.47,0,110,13.43,7.00,0.8
"2009-09-22 00:03:00",1261734,11.37,36.18,4.284,0.915,10.71,102.7135,6.226,7.476,46.15,0,110,13.43,7.00,358.2
"2009-09-22 00:03:30",1261735,13,41.63,4.572,1.622,10.73,102.7121,6.222,7.48,44.9,0,110,13.43,7.00,3.6
"2009-09-22 00:04:00",1261736,12.75,38.17,5.018,1.277,10.95,102.7119,6.221,7.474,44.52,0,110,13.43,7.00,0.2
"2009-09-22 00:04:30",1261737,11.89,34.41,4.714,1.2,10.82,102.7119,6.221,7.481,45.03,0,110,13.43,7.00,356.4
"2009-09-22 00:05:00",1261738,11.09,39.49,5.86,1.192,10.82,102.7119,6.221,7.504,46.48,0,110,13.43,7.00,1.5
"2009-09-22 00:05:30",1261739,11.84,39.16,3.419,1.452,10.82,102.7119,6.221,7.478,45.07,0,110,13.43,7.00,1.2
"2009-09-22 00:06:00",1261740,11.71,38.04,2.785,1.024,10.88,102.7119,6.221,7.484,45.15,0,110,13.43,7.00,0.0
"2009-09-22 00:06:30",1261741,13.24,40.46,4.502,0.702,10.91,102.7119,6.221,7.473,43.63,0,110,13.43,7.00,2.5
"2009-09-22 00:07:00",1261742,12.04,42.37,4.385,1.514,10.84,102.7119,6.221,7.476,43.78,0,110,13.43,7.00,4.4
"2009-09-22 00:07:30",1261743,11.89,44.19,3.159,1.429,10.78,102.7102,6.217,7.478,44.33,0,110,13.42,6.99,6.2
"2009-09-22 00:08:00",1261744,11.49,42.49,5.839,1.762,11,102.7031,6.199,7.466,45.64,0,110,13.42,6.97,4.5
"2009-09-22 00:08:30",1261745,12.17,42.44,4.047,0.881,10.96,102.6918,6.17,7.472,45.3,0,110,13.42,6.94,4.4
"2009-09-22 00:09:00",1261746,11.74,42.9,4.062,1.232,10.91,102.6802,6.141,7.482,45.23,0,110,13.42,6.91,4.9
"2009-09-22 00:09:30",1261747,10.6,43.01,4.615,1.146,10.83,102.678,6.135,7.461,45.56,0,110,13.42,6.91,5.0
"2009-09-22 00:10:00",1261748,10.47,41.71,3.156,0.996,10.86,102.678,6.135,7.439,44.96,0,110,13.42,6.91,3.7
"2009-09-22 00:10:30",1261749,12.19,42.67,4.439,1.221,10.58,102.678,6.135,7.435,44.86,0,110,13.42,6.91,4.7
"2009-09-22 00:11:00",1261750,10.86,40.25,6.827,1.775,10.05,102.678,6.135,7.423,44.21,0,110,13.42,6.91,2.2
"2009-09-22 00:11:30",1261751,11.28,39.41,5.631,1.142,9.68,102.6782,6.135,7.24,43.31,0,110,13.42,6.91,1.4
"2009-09-22 00:12:00",1261752,10.25,33.32,6.98,1.558,8.35,102.6782,6.135,7.327,43.85,0,110,13.42,6.91,355.3
"2009-09-22 00:12:30",1261753,12.49,41.22,5.445,1.732,11.34,102.678,6.135,7.382,43.02,0,110,13.42,6.91,3.2
"2009-09-22 00:13:00",1261754,12.48,42.16,3.444,0.908,11.78,102.6771,6.133,7.392,42.7,0,110,13.43,6.91,4.2
"2009-09-22 00:13:30",1261755,13.09,42.54,4.707,1.459,11.66,102.676,6.13,7.4,43.21,0,110,13.43,6.90,4.5
"2009-09-22 00:14:00",1261756,12.32,41.85,2.893,0.927,11.5,102.6717,6.119,7.379,42.63,0,110,13.43,6.89,3.8
"2009-09-22 00:14:30",1261757,12.42,40.8,4.067,1.066,11.44,102.6664,6.105,7.329,43.01,0,110,13.43,6.88,2.8
"2009-09-22 00:15:00",1261758,11.06,34.01,5.703,1.356,9.68,102.6621,6.094,7.307,41.85,0,110,13.43,6.87,356.0
"2009-09-22 00:15:30",1261759,11.66,38.09,5.576,1.228,10.24,102.6608,6.091,7.381,41.98,0,110,13.43,6.86,0.1
"2009-09-22 00:16:00",1261760,12.95,41.04,2.758,1.12,11.34,102.6622,6.094,7.365,41.89,0,110,13.43,6.87,3.0
"2009-09-22 00:16:30",1261761,12.17,39.09,3.751,0.836,11.52,102.665,6.102,7.352,42.26,0,110,13.43,6.88,1.1
"2009-09-22 00:17:00",1261762,12.08,38.47,4.651,1.028,11.27,102.6684,6.11,7.381,42.23,0,110,13.43,6.88,0.5
"2009-09-22 00:17:30",1261763,11.8,38.71,3.625,0.825,11.11,102.6732,6.123,7.375,42.08,0,110,13.43,6.90,0.7
"2009-09-22 00:18:00",1261764,12.24,38.65,3.582,0.838,10.96,102.6771,6.133,7.367,42.2,0,110,13.43,6.91,0.7
"2009-09-22 00:18:30",1261765,12.92,39.33,3.418,0.715,11.14,102.6791,6.138,7.368,41.5,0,110,13.43,6.91,1.3
"2009-09-22 00:19:00",1261766,12.87,38.55,3.394,1.038,11.01,102.678,6.135,7.371,41.05,0,110,13.43,6.91,0.5
"2009-09-22 00:19:30",1261767,12.54,38.08,3.378,1.02,11,102.6794,6.138,7.371,40.72,0,110,13.43,6.91,0.1
"2009-09-22 00:20:00",1261768,12.67,38.56,3.805,1.001,11.05,102.68,6.14,7.381,40.61,0,110,13.43,6.91,0.6
"2009-09-22 00:20:30",1261769,12.2,38.79,3.354,0.952,11.02,102.6803,6.141,7.366,40.77,0,110,13.43,6.91,0.8
"2009-09-22 00:21:00",1261770,12.33,39.59,1.689,0.785,11.32,102.6809,6.142,7.382,39.91,0,110,13.43,6.92,1.6
"2009-09-22 00:21:30",1261771,12.84,38.05,3.379,1.008,11.15,102.6817,6.144,7.392,40.87,0,110,13.42,6.92,0.0
"2009-09-22 00:22:00",1261772,12.23,38.24,4.08,0.769,11.18,102.6814,6.144,7.406,41.07,0,110,13.42,6.92,0.2
"2009-09-22 00:22:30",1261773,13.05,40.09,2.91,1.254,11.19,102.682,6.145,7.419,39.94,0,110,13.42,6.92,2.1
"2009-09-22 00:23:00",1261774,13.38,38.22,2.89,1.27,11.29,102.6829,6.147,7.407,38.53,0,110,13.42,6.92,0.2
"2009-09-22 00:23:30",1261775,12.48,38.32,2.382,1.448,11.08,102.6897,6.165,7.417,39.77,0,110,13.42,6.94,0.3
"2009-09-22 00:24:00",1261776,12.05,40.36,2.616,0.825,11.07,102.6951,6.178,7.414,40.36,0,110,13.42,6.95,2.4
"2009-09-22 00:24:30",1261777,11.59,40.02,3.041,0.915,11.06,102.7008,6.193,7.424,40.37,0,110,13.42,6.97,2.0
"2009-09-22 00:25:00",1261778,12.32,40.61,3.502,0.844,11.29,102.7036,6.2,7.417,39.3,0,110,13.42,6.97,2.6
"2009-09-22 00:25:30",1261779,13.13,40.37,3.062,1.144,11.11,102.7033,6.199,7.431,39.44,0,110,13.43,6.97,2.4
"2009-09-22 00:26:00",1261780,11.85,40.44,3.881,0.89,11,102.7064,6.207,7.431,40.73,0,109.9,13.43,6.98,2.4
"2009-09-22 00:26:30",1261781,12.3,41.01,2.813,1.193,10.98,102.7019,6.196,7.432,41.2,0,109.9,13.43,6.97,3.0
"2009-09-22 00:27:00",1261782,12.32,41.24,2.841,1.038,11.2,102.6949,6.178,7.44,41.29,0,110,13.43,6.95,3.2
"2009-09-22 00:27:30",1261783,12.22,40.74,3.532,0.773,10.93,102.6878,6.16,7.438,40.87,0,110,13.43,6.93,2.7
"2009-09-22 00:28:00",1261784,12.04,40.77,3.333,0.729,11.02,102.6887,6.162,7.445,40.94,0,109.9,13.43,6.94,2.8
"2009-09-22 00:28:30",1261785,12.21,40.56,3.375,0.731,11.14,102.6881,6.161,7.427,41.13,0,109.9,13.43,6.93,2.6
"2009-09-22 00:29:00",1261786,12.41,42.04,2.159,0.927,11.17,102.689,6.163,7.433,40.99,0,109.9,13.43,6.94,4.0
"2009-09-22 00:29:30",1261787,12,40.77,2.628,0.977,11.01,102.6907,6.167,7.432,41.37,0,110,13.43,6.94,2.8
"2009-09-22 00:30:00",1261788,11.95,40.16,2.65,0.826,11,102.6901,6.166,7.414,40.93,0,109.9,13.43,6.94,2.2
"2009-09-22 00:30:30",1261789,12.24,39.83,3.078,0.842,11.05,102.691,6.168,7.398,41,0,109.9,13.43,6.94,1.8
"2009-09-22 00:31:00",1261790,12.53,39.94,3.387,0.552,11.2,102.6936,6.175,7.41,40.41,0,109.9,13.43,6.95,1.9
"2009-09-22 00:31:30",1261791,12.12,39.33,3.878,0.466,11.18,102.6916,6.17,7.407,40.8,0,109.9,13.43,6.94,1.3
"2009-09-22 00:32:00",1261792,12.3,40.16,3.704,0.796,11.23,102.6939,6.176,7.424,39.42,0,109.9,13.43,6.95,2.2
"2009-09-22 00:32:30",1261793,12.26,38.79,3.197,0.91,11,102.6954,6.179,7.395,39.45,0,109.9,13.43,6.95,0.8
"2009-09-22 00:33:00",1261794,12.4,40.81,1.799,0.867,11.07,102.6948,6.178,7.411,40.67,0,109.9,13.43,6.95,2.8
"2009-09-22 00:33:30",1261795,12.31,40.66,2.96,0.903,10.97,102.6951,6.178,7.425,40.74,0,109.9,13.43,6.95,2.7
"2009-09-22 00:34:00",1261796,12.4,38.85,3.739,0.582,11.04,102.6985,6.187,7.432,39.98,0,109.9,13.43,6.96,0.8
"2009-09-22 00:34:30",1261797,12.94,40.85,2.758,0.985,11.04,102.7081,6.212,7.415,39.88,0,109.9,13.43,6.99,2.8
"2009-09-22 00:35:00",1261798,12.35,39.39,3.31,0.74,11.18,102.7217,6.247,7.422,39.96,0,109.9,13.43,7.02,1.4
"2009-09-22 00:35:30",1261799,12.31,39.81,2.191,1.075,10.91,102.7302,6.268,7.43,40.89,0,109.9,13.43,7.04,1.8
"2009-09-22 00:36:00",1261800,12.34,39.67,2.025,0.831,10.99,102.7299,6.267,7.462,40.11,0,109.9,13.43,7.04,1.7
"2009-09-22 00:36:30",1261801,12.71,39.15,3.16,0.903,11.06,102.7299,6.267,7.446,40.01,0,109.9,13.43,7.04,1.2
"2009-09-22 00:37:00",1261802,12.79,39.24,2.241,0.72,11.34,102.7313,6.271,7.451,39.98,0,109.9,13.43,7.05,1.2
"2009-09-22 00:37:30",1261803,12.61,38.76,3.333,0.763,11.32,102.7304,6.269,7.462,39.12,0,110,13.43,7.04,0.8
"2009-09-22 00:38:00",1261804,13.31,37.78,3.608,1.01,11.21,102.7325,6.274,7.467,39.74,0,109.9,13.43,7.05,359.8
"2009-09-22 00:38:30",1261805,13.39,39.86,2.851,0.922,11.31,102.733,6.275,7.477,39.51,0,109.9,13.43,7.05,1.9
"2009-09-22 00:39:00",1261806,13.13,40.24,3.076,1.186,11.58,102.733,6.275,7.487,39.85,0,109.9,13.43,7.05,2.2
"2009-09-22 00:39:30",1261807,12.67,40.09,3.333,0.763,11.47,102.733,6.275,7.486,38.47,0,110,13.43,7.05,2.1
"2009-09-22 00:40:00",1261808,12.7,40.24,3.763,0.676,11.27,102.7345,6.279,7.499,38.26,0,109.9,13.43,7.05,2.2
"2009-09-22 00:40:30",1261809,13.62,41.51,3.579,0.76,11.45,102.7342,6.278,7.489,37.79,0,109.9,13.43,7.05,3.5
"2009-09-22 00:41:00",1261810,13.18,42.44,1.455,0.773,11.68,102.7401,6.294,7.484,37.67,0,109.9,13.43,7.07,4.4
"2009-09-22 00:41:30",1261811,13.61,42.52,3.641,0.692,11.61,102.7569,6.336,7.505,37.73,0,109.9,13.43,7.11,4.5
"2009-09-22 00:42:00",1261812,13.42,42.18,3.634,0.626,11.41,102.7679,6.365,7.529,37.91,0,109.9,13.43,7.14,4.2
"2009-09-22 00:42:30",1261813,13.74,42.73,3.387,0.828,11.37,102.7725,6.376,7.52,38.17,0,109.9,13.43,7.15,4.7
"2009-09-22 00:43:00",1261814,12.91,42.35,2.715,0.72,11.52,102.7728,6.377,7.538,38.51,0,109.9,13.43,7.15,4.3
"2009-09-22 00:43:30",1261815,13.17,42.94,2.576,0.846,11.44,102.7745,6.381,7.536,38.57,0,109.9,13.43,7.16,4.9
"2009-09-22 00:44:00",1261816,13.43,42.98,3.451,0.998,11.55,102.7733,6.378,7.559,38.76,0,109.9,13.43,7.15,5.0
"2009-09-22 00:44:30",1261817,14.36,43.31,4.121,0.696,11.62,102.7745,6.381,7.57,38.98,0,109.9,13.43,7.16,5.3
"2009-09-22 00:45:00",1261818,14.72,44.56,2.025,0.88,11.66,102.7737,6.379,7.558,39.07,0,109.9,13.43,7.15,6.6
"2009-09-22 00:45:30",1261819,16.29,45.75,2.768,0.815,11.63,102.7714,6.373,7.567,39.28,0,109.9,13.43,7.15,7.8
"2009-09-22 00:46:00",1261820,15.95,44.99,3.996,1.162,11.74,102.7672,6.363,7.547,39.58,0,109.9,13.43,7.14,7.0
"2009-09-22 00:46:30",1261821,15.49,44.82,3.375,1.106,11.88,102.7582,6.34,7.558,39.81,0,109.9,13.43,7.11,6.8
"2009-09-22 00:47:00",1261822,16.23,45.6,2.944,0.905,11.99,102.7517,6.323,7.559,39.78,0,109.9,13.43,7.10,7.6
"2009-09-22 00:47:30",1261823,15.73,45.01,3.315,0.881,11.69,102.7458,6.308,7.536,40.04,0,109.9,13.43,7.08,7.0
"2009-09-22 00:48:00",1261824,15.53,45.45,2.996,1.095,11.78,102.7441,6.304,7.542,39.94,0,109.9,13.43,7.08,7.5
"2009-09-22 00:48:30",1261825,15.57,45.41,3.024,1.013,11.84,102.7447,6.305,7.524,39.93,0,109.9,13.43,7.08,7.4
"2009-09-22 00:49:00",1261826,15.62,45.01,3.254,0.967,12.07,102.7447,6.305,7.505,39.75,0,109.9,13.44,7.08,7.0
"2009-09-22 00:49:30",1261827,16.5,46.48,3.017,0.83,11.79,102.7458,6.308,7.512,40.07,0,110,13.44,7.08,8.5
"2009-09-22 00:50:00",1261828,16.48,46.53,3.393,0.737,11.67,102.7455,6.307,7.508,40.63,0,109.9,13.44,7.08,8.5
"2009-09-22 00:50:30",1261829,16.44,46.3,2.114,1.069,11.81,102.745,6.306,7.495,40.25,0,109.9,13.44,7.08,8.3
"2009-09-22 00:51:00",1261830,16.74,46.41,1.76,0.822,12.04,102.7367,6.285,7.503,39.99,0,109.9,13.44,7.06,8.4
"2009-09-22 00:51:30",1261831,16.81,46.69,1.893,0.91,11.88,102.7388,6.29,7.485,40.12,0,109.9,13.44,7.06,8.7
"2009-09-22 00:52:00",1261832,16.54,46.52,1.836,0.877,11.89,102.7391,6.291,7.494,40.2,0,109.9,13.44,7.07,8.5
"2009-09-22 00:52:30",1261833,16.59,46.64,1.999,0.791,11.89,102.7408,6.295,7.48,40.3,0,109.9,13.44,7.07,8.6
"2009-09-22 00:53:00",1261834,16.68,46.83,1.621,0.747,12.05,102.7402,6.294,7.479,40.18,0,109.9,13.43,7.07,8.8
"2009-09-22 00:53:30",1261835,16.96,46.49,3.11,0.768,11.99,102.7419,6.298,7.482,40.34,0,109.9,13.43,7.07,8.5
"2009-09-22 00:54:00",1261836,17.31,46.64,3.345,0.704,11.98,102.7439,6.303,7.505,40.53,0,109.9,13.43,7.08,8.6
"2009-09-22 00:54:30",1261837,16.97,46.37,3.413,0.719,12.03,102.745,6.306,7.485,40.32,0,109.9,13.43,7.08,8.4
"2009-09-22 00:55:00",1261838,17.35,46.56,3.314,0.538,12.12,102.7467,6.31,7.468,40.23,0,109.9,13.43,7.08,8.6
"2009-09-22 00:55:30",1261839,17.15,46.49,3.452,0.67,12.07,102.7467,6.31,7.478,40.56,0,109.9,13.43,7.08,8.5
"2009-09-22 00:56:00",1261840,17.49,46.63,3.337,0.743,12.05,102.7467,6.31,7.492,40.9,0,109.9,13.43,7.08,8.6
"2009-09-22 00:56:30",1261841,17.55,47,3.347,0.669,12.1,102.7467,6.31,7.479,41.06,0,109.9,13.43,7.08,9.0
"2009-09-22 00:57:00",1261842,17.55,47.29,3.21,0.531,12.29,102.7467,6.31,7.48,41.19,0,109.9,13.43,7.08,9.3
"2009-09-22 00:57:30",1261843,17.61,46.84,3.426,0.702,12.13,102.7467,6.31,7.487,41.13,0,109.9,13.43,7.08,8.8
"2009-09-22 00:58:00",1261844,17.63,47.02,3.43,0.719,12.18,102.7467,6.31,7.488,41.12,0,109.9,13.43,7.08,9.0
"2009-09-22 00:58:30",1261845,17.52,46.64,3.372,0.706,12.24,102.7467,6.31,7.478,41.18,0,109.9,13.43,7.08,8.6
"2009-09-22 00:59:00",1261846,17.48,47.27,2.867,0.719,12.17,102.7467,6.31,7.495,41.35,0,109.9,13.43,7.08,9.3
"2009-09-22 00:59:30",1261847,17.6,47.48,2.636,0.692,12.04,102.7467,6.31,7.496,41.51,0,109.9,13.44,7.08,9.5
"2009-09-22 01:00:00",1261848,17.59,47.01,3.301,0.665,12.18,102.7467,6.31,7.498,41.7,0,109.9,13.44,7.08,9.0
"2009-09-22 01:00:30",1261849,17.7,46.99,2.792,0.79,12.18,102.7467,6.31,7.472,41.66,0,109.9,13.44,7.08,9.0
"2009-09-22 01:01:00",1261850,17.88,47.09,2.549,0.688,12.32,102.7467,6.31,7.479,41.75,0,109.9,13.44,7.08,9.1
"2009-09-22 01:01:30",1261851,17.82,46.8,3.421,0.749,12.18,102.7467,6.31,7.49,42.06,0,109.9,13.44,7.08,8.8
"2009-09-22 01:02:00",1261852,17.72,46.79,3.902,0.648,12.08,102.7467,6.31,7.494,42.38,0,109.9,13.44,7.08,8.8
"2009-09-22 01:02:30",1261853,17.76,47.7,3.32,0.698,12.22,102.7464,6.31,7.484,42.34,0,109.9,13.44,7.08,9.7
"2009-09-22 01:03:00",1261854,18.25,48.49,1.896,0.756,12.24,102.745,6.306,7.494,42.07,0,109.9,13.44,7.08,10.5
"2009-09-22 01:03:30",1261855,18.04,48.5,1.913,0.874,12.13,102.745,6.306,7.492,41.59,0,109.9,13.44,7.08,10.5
"2009-09-22 01:04:00",1261856,17.74,48.37,2.034,0.867,12.09,102.7467,6.31,7.492,41.64,0,109.9,13.44,7.08,10.4
"2009-09-22 01:04:30",1261857,17.71,48.65,1.972,0.867,12.05,102.7467,6.31,7.473,41.47,0,109.9,13.44,7.08,10.7
"2009-09-22 01:05:00",1261858,18.08,48.96,1.616,0.783,12.26,102.7467,6.31,7.493,41.42,0,109.9,13.44,7.08,11.0
"2009-09-22 01:05:30",1261859,17.84,48.72,2.86,0.675,12.23,102.7467,6.31,7.485,40.64,0,109.9,13.44,7.08,10.7
"2009-09-22 01:06:00",1261860,17.51,49.18,3.386,0.699,12.12,102.7467,6.31,7.499,40.5,0,109.9,13.44,7.08,11.2
"2009-09-22 01:06:30",1261861,17.57,49.32,2.741,0.784,12.1,102.7512,6.322,7.506,41.24,0,109.9,13.44,7.10,11.3
"2009-09-22 01:07:00",1261862,17.38,49.79,2.534,0.663,12.15,102.7642,6.355,7.506,41.23,0,109.9,13.44,7.13,11.8
"2009-09-22 01:07:30",1261863,17.42,49.3,3.243,0.655,12.2,102.7716,6.374,7.529,41.32,0,109.9,13.44,7.15,11.3
"2009-09-22 01:08:00",1261864,17.02,48.55,3.03,0.769,12.03,102.7761,6.385,7.549,41.59,0,109.9,13.44,7.16,10.5
"2009-09-22 01:08:30",1261865,17.16,48.33,3.502,0.682,11.94,102.7769,6.388,7.538,41.73,0,109.9,13.44,7.16,10.3
"2009-09-22 01:09:00",1261866,17.09,48.6,2.652,0.677,12.15,102.7781,6.39,7.536,41.6,0,109.9,13.44,7.16,10.6
"2009-09-22 01:09:30",1261867,16.86,47.97,3.386,0.644,12.16,102.7781,6.39,7.53,41.68,0,109.9,13.43,7.16,10.0
"2009-09-22 01:10:00",1261868,17,47.65,3.331,0.667,12.11,102.7781,6.39,7.581,42.02,0,109.9,13.43,7.16,9.7
"2009-09-22 01:10:30",1261869,16.6,47.43,2.901,0.824,11.96,102.7747,6.382,7.544,42.18,0,109.9,13.43,7.16,9.4
"2009-09-22 01:11:00",1261870,16.66,47.97,2.764,0.667,12.02,102.771,6.372,7.552,42.12,0,109.9,13.43,7.15,10.0
"2009-09-22 01:11:30",1261871,16.51,47.87,2.734,0.736,11.86,102.7659,6.359,7.555,42.33,0,109.9,13.43,7.13,9.9
"2009-09-22 01:12:00",1261872,16.37,47.99,2.723,0.769,11.91,102.7636,6.354,7.57,42.32,0,109.9,13.43,7.13,10.0
"2009-09-22 01:12:30",1261873,16.41,47.85,2.763,0.743,11.93,102.7631,6.352,7.574,42.54,0,109.9,13.43,7.13,9.8
"2009-09-22 01:13:00",1261874,16.75,48.29,2.449,0.654,12.05,102.7538,6.328,7.54,42.62,0,109.9,13.43,7.10,10.3
"2009-09-22 01:13:30",1261875,16.51,48.54,2.743,0.757,11.9,102.7475,6.313,7.538,42.66,0,109.9,13.43,7.09,10.5
"2009-09-22 01:14:00",1261876,16.45,48.08,2.819,0.782,11.94,102.747,6.311,7.535,42.6,0,109.9,13.43,7.09,10.1
"2009-09-22 01:14:30",1261877,15.98,47.39,2.738,0.725,11.94,102.747,6.311,7.533,42.27,0,109.9,13.43,7.09,9.4
"2009-09-22 01:15:00",1261878,16.33,48.43,2.457,0.618,12.05,102.7467,6.31,7.552,42.99,0,109.9,13.44,7.08,10.4
"2009-09-22 01:15:30",1261879,16.23,48.37,3.468,0.683,11.78,102.7467,6.31,7.55,43.21,0,109.9,13.44,7.08,10.4
"2009-09-22 01:16:00",1261880,16.21,49.19,2.68,0.786,11.87,102.7467,6.31,7.542,43.07,0,109.9,13.44,7.08,11.2
"2009-09-22 01:16:30",1261881,16.01,47.44,3.38,0.747,12.12,102.7467,6.31,7.54,42.37,0,109.9,13.44,7.08,9.4
"2009-09-22 01:17:00",1261882,15,46.78,2.088,0.911,12.16,102.7467,6.31,7.528,41.66,0,109.9,13.44,7.08,8.8
"2009-09-22 01:17:30",1261883,15.31,47.14,2.652,0.723,11.8,102.7467,6.31,7.529,42.43,0,109.9,13.44,7.08,9.1
"2009-09-22 01:18:00",1261884,15.65,47,3.97,0.543,11.65,102.7467,6.31,7.521,42.96,0,109.9,13.44,7.08,9.0
"2009-09-22 01:18:30",1261885,15.66,47.73,2.718,0.804,11.77,102.7467,6.31,7.536,42.77,0,109.9,13.44,7.08,9.7
"2009-09-22 01:19:00",1261886,16.17,48.24,2.302,0.656,12.03,102.7467,6.31,7.533,43.16,0,109.9,13.44,7.08,10.2
"2009-09-22 01:19:30",1261887,16.23,47.42,3.259,0.72,11.89,102.7467,6.31,7.527,43.52,0,109.9,13.44,7.08,9.4
"2009-09-22 01:20:00",1261888,16.26,47.69,3.41,0.702,11.73,102.7467,6.31,7.525,43.7,0,109.9,13.44,7.08,9.7
"2009-09-22 01:20:30",1261889,16.05,47.62,2.672,0.793,11.79,102.7467,6.31,7.539,43,0,109.9,13.44,7.08,9.6
"2009-09-22 01:21:00",1261890,16.19,47.86,3.107,0.521,12.01,102.7467,6.31,7.518,43.09,0,109.9,13.44,7.08,9.9
"2009-09-22 01:21:30",1261891,15.92,47.9,3.447,0.664,11.84,102.7467,6.31,7.503,43.36,0,109.9,13.44,7.08,9.9
"2009-09-22 01:22:00",1261892,15.93,47.82,2.501,0.744,11.89,102.7467,6.31,7.528,43.42,0,109.9,13.44,7.08,9.8
"2009-09-22 01:22:30",1261893,16.11,47.69,3.918,0.543,11.75,102.7467,6.31,7.505,43.54,0,109.9,13.44,7.08,9.7
"2009-09-22 01:23:00",1261894,16.15,48.69,2.681,0.661,11.88,102.7467,6.31,7.528,43.55,0,109.9,13.44,7.08,10.7
"2009-09-22 01:23:30",1261895,16.07,47.84,2.963,0.756,11.89,102.7467,6.31,7.511,43.23,0,109.9,13.44,7.08,9.8
"2009-09-22 01:24:00",1261896,15.83,47.85,3.283,0.687,11.89,102.7467,6.31,7.518,43.1,0,109.9,13.44,7.08,9.8
"2009-09-22 01:24:30",1261897,15.78,47.59,3.295,0.721,11.89,102.7467,6.31,7.502,43.01,0,109.9,13.44,7.08,9.6
"2009-09-22 01:25:00",1261898,15.97,47.72,3.307,0.538,11.85,102.7467,6.31,7.505,43.1,0,109.9,13.45,7.08,9.7
"2009-09-22 01:25:30",1261899,15.95,47.78,3.356,0.654,11.8,102.7467,6.31,7.513,43.06,0,109.9,13.44,7.08,9.8
"2009-09-22 01:26:00",1261900,15.72,47.53,1.882,0.89,11.77,102.7467,6.31,7.512,42.97,0,109.9,13.44,7.08,9.5
"2009-09-22 01:26:30",1261901,15.46,47.03,2.065,0.839,11.9,102.7467,6.31,7.514,42.53,0,109.9,13.44,7.08,9.0
"2009-09-22 01:27:00",1261902,15.46,47.79,2.921,0.655,11.89,102.7467,6.31,7.503,42.61,0,109.9,13.43,7.08,9.8
"2009-09-22 01:27:30",1261903,15.71,49.26,3.526,0.719,11.79,102.7467,6.31,7.508,43.68,0,109.9,13.43,7.08,11.3
"2009-09-22 01:28:00",1261904,15.46,50.06,3.915,0.611,11.82,102.7467,6.31,7.523,44.56,0,109.9,13.43,7.08,12.1
"2009-09-22 01:28:30",1261905,15.27,50.55,3.277,0.786,11.66,102.7467,6.31,7.535,44.72,0,109.9,13.43,7.08,12.5
"2009-09-22 01:29:00",1261906,15.84,49.89,1.628,0.695,11.97,102.7467,6.31,7.513,43.45,0,109.9,13.43,7.08,11.9
"2009-09-22 01:29:30",1261907,15.73,49.28,3.493,0.707,11.74,102.7467,6.31,7.522,43.7,0,109.9,13.43,7.08,11.3
"2009-09-22 01:30:00",1261908,15.91,49.21,2.953,0.754,11.8,102.7453,6.307,7.512,42.99,0,109.9,13.43,7.08,11.2
"2009-09-22 01:30:30",1261909,15.9,49.67,3.422,0.761,11.89,102.7461,6.309,7.514,42.71,0,109.9,13.43,7.08,11.7
"2009-09-22 01:31:00",1261910,16.14,49.18,2.597,0.684,12.05,102.7464,6.31,7.503,42.17,0,109.9,13.44,7.08,11.2
"2009-09-22 01:31:30",1261911,15.8,49.28,3.417,0.712,11.85,102.7467,6.31,7.515,42.62,0,109.9,13.44,7.08,11.3
"2009-09-22 01:32:00",1261912,16.13,49.94,3.761,0.744,11.82,102.7467,6.31,7.513,42.72,0,109.9,13.44,7.08,11.9
"2009-09-22 01:32:30",1261913,16.1,50.22,3.446,0.668,11.79,102.7467,6.31,7.518,42.85,0,109.9,13.44,7.08,12.2
"2009-09-22 01:33:00",1261914,15.98,51.08,3.374,0.63,12.1,102.7467,6.31,7.512,43.01,0,109.9,13.45,7.08,13.1
"2009-09-22 01:33:30",1261915,15.65,51.03,1.944,0.88,11.79,102.7467,6.31,7.525,42.96,0,109.9,13.45,7.08,13.0
"2009-09-22 01:34:00",1261916,15.93,50.53,2.819,0.798,11.72,102.7467,6.31,7.529,43.06,0,109.9,13.45,7.08,12.5
"2009-09-22 01:34:30",1261917,16.18,50.77,3.568,0.668,11.86,102.7467,6.31,7.538,42.82,0,109.9,13.45,7.08,12.8
"2009-09-22 01:35:00",1261918,16.06,50.76,2.731,0.69,11.89,102.7467,6.31,7.522,43.07,0,109.9,13.45,7.08,12.8
"2009-09-22 01:35:30",1261919,15.9,49.81,3.845,0.597,11.86,102.7467,6.31,7.521,42.69,0,109.9,13.45,7.08,11.8
"2009-09-22 01:36:00",1261920,15.97,50.02,2.826,0.753,11.81,102.7467,6.31,7.533,42.89,0,109.9,13.45,7.08,12.0
"2009-09-22 01:36:30",1261921,15.83,49.86,3.651,0.676,11.97,102.7467,6.31,7.525,43.13,0,109.9,13.45,7.08,11.9
"2009-09-22 01:37:00",1261922,15.8,51.04,3.67,0.449,11.98,102.7467,6.31,7.54,42.91,0,109.9,13.45,7.08,13.0
"2009-09-22 01:37:30",1261923,15.47,48.93,2.62,0.781,11.77,102.747,6.311,7.554,42.76,0,109.9,13.45,7.09,10.9
"2009-09-22 01:38:00",1261924,16.06,49.05,3.677,0.632,11.68,102.747,6.311,7.544,42.6,0,109.9,13.45,7.09,11.0
"2009-09-22 01:38:30",1261925,15.6,48.93,2.731,0.78,11.75,102.747,6.311,7.541,43.1,0,109.9,13.45,7.09,10.9
"2009-09-22 01:39:00",1261926,15.64,49.46,2.957,0.772,11.9,102.747,6.311,7.537,43.37,0,109.9,13.45,7.09,11.5
"2009-09-22 01:39:30",1261927,15.97,48.5,2.798,0.827,11.78,102.7473,6.312,7.522,42.66,0,109.9,13.45,7.09,10.5
"2009-09-22 01:40:00",1261928,15.76,49.11,2.948,0.799,11.81,102.7484,6.315,7.554,43.19,0,109.9,13.45,7.09,11.1
"2009-09-22 01:40:30",1261929,15.71,48.28,3.057,0.784,11.68,102.7473,6.312,7.55,43.34,0,109.9,13.45,7.09,10.3
"2009-09-22 01:41:00",1261930,15.52,49.4,2.792,0.669,11.89,102.7473,6.312,7.556,43.31,0,109.9,13.45,7.09,11.4
"2009-09-22 01:41:30",1261931,15.99,48.75,3.585,0.869,11.87,102.7473,6.312,7.552,43.17,0,109.9,13.45,7.09,10.8
"2009-09-22 01:42:00",1261932,16.21,48.81,3.445,0.726,11.85,102.747,6.311,7.562,43.15,0,109.9,13.44,7.09,10.8
"2009-09-22 01:42:30",1261933,15.28,50.35,2.337,0.915,11.64,102.7467,6.31,7.549,43.81,0,109.9,13.44,7.08,12.3
"2009-09-22 01:43:00",1261934,15.72,49.31,2.223,0.749,11.83,102.7467,6.31,7.553,43.58,0,109.9,13.44,7.08,11.3
"2009-09-22 01:43:30",1261935,16.09,49.07,2.806,0.724,11.77,102.7467,6.31,7.562,43.24,0,109.9,13.43,7.08,11.1
"2009-09-22 01:44:00",1261936,16.03,48.58,3.743,0.631,11.81,102.7467,6.31,7.552,43.5,0,109.9,13.43,7.08,10.6
"2009-09-22 01:44:30",1261937,15.74,47.96,2.73,0.829,11.82,102.7467,6.31,7.542,43.25,0,109.9,13.43,7.08,10.0
"2009-09-22 01:45:00",1261938,15.2,50.01,1.973,0.81,11.77,102.7467,6.31,7.544,43.73,0,109.9,13.43,7.08,12.0
"2009-09-22 01:45:30",1261939,15.44,49.95,2.336,0.768,11.64,102.7467,6.31,7.553,43.97,0,109.9,13.44,7.08,12.0
"2009-09-22 01:46:00",1261940,16.07,49.19,3.003,0.831,11.65,102.7467,6.31,7.541,43.67,0,109.9,13.43,7.08,11.2
"2009-09-22 01:46:30",1261941,16.11,49.85,3.677,0.685,11.65,102.7467,6.31,7.532,43.79,0,109.9,13.43,7.08,11.8
"2009-09-22 01:47:00",1261942,16.2,49.64,2.631,0.654,11.91,102.7467,6.31,7.537,43.37,0,109.9,13.44,7.08,11.6
"2009-09-22 01:47:30",1261943,16.47,48.72,3.261,0.681,11.91,102.7467,6.31,7.524,43.01,0,109.9,13.44,7.08,10.7
"2009-09-22 01:48:00",1261944,16.32,48.73,3.264,0.668,11.99,102.7467,6.31,7.542,43.01,0,109.9,13.45,7.08,10.7
"2009-09-22 01:48:30",1261945,16.12,49.48,3.584,0.684,11.81,102.7467,6.31,7.519,43.45,0,109.9,13.45,7.08,11.5
"2009-09-22 01:49:00",1261946,16.47,48.48,2.54,0.657,12.02,102.7467,6.31,7.527,43.27,0,109.9,13.45,7.08,10.5
"2009-09-22 01:49:30",1261947,16.26,47.7,3.138,0.674,12.08,102.7467,6.31,7.514,43.23,0,109.9,13.45,7.08,9.7
"2009-09-22 01:50:00",1261948,16.18,48.04,1.914,0.87,11.85,102.7467,6.31,7.546,43.2,0,109.9,13.45,7.08,10.0